Location: Jangalapalle
(16.8036°N, 80.6370°E)
Time: 11:10:40
(UTC+00:00)

SL-8 Rocket - Pass Details

Date: 05 August 2024
Orbit: 956 x 990 km, 82.9° (Epoch: 08 September)

Event Time Altitude Azimuth Distance (km) Brightness Sun altitude
Rises 13:36:11 0° 177° (S) 3,676 6.8 -7.2°
Reaches altitude 10° 13:38:42 10° 175° (S) 2,733 6.1 -7.8°
Maximum altitude 13:44:56 70° 93° (E) 1,047 4.0 -9.2°
Drops below altitude 10° 13:51:12 10° 10° (N) 2,747 6.5 -10.6°
Sets 13:53:44 0° 8° (N) 3,697 7.2 -11.2°
